Location: Medlow Airstrip Trail, Medlow Bath NSW 2780, Australia
(33.6682°S, 150.3233°E)
Time: 20:57:47
(UTC+11:00)

Envisat - Visible Passes

Search period start: 26 March 2019 00:00
Search period end: 05 April 2019 00:00
Orbit: 764 x 766 km, 98.2° (Epoch: 25 March)

Date Brightness Start Highest point End Pass type
(mag) Time Alt. Az. Time Alt. Az. Time Alt. Az.
26 Mar 6.1 06:19:33 10° E 06:21:48 13° ESE 06:24:03 10° SE visible
26 Mar 3.0 20:08:09 10° SSE 20:13:16 62° E 20:18:18 10° N visible
26 Mar 6.0 21:49:18 10° SW 21:51:41 13° WSW 21:54:04 10° W visible
27 Mar 3.9 19:32:09 10° SE 19:36:23 26° E 19:40:34 10° NNE visible
27 Mar 4.8 21:10:53 10° S 21:15:19 30° WSW 21:19:44 10° NW visible
28 Mar 3.2 20:33:39 10° S 20:38:46 72° WSW 20:43:50 10° NNW visible
29 Mar 3.2 19:57:04 10° SSE 20:02:02 47° E 20:06:55 10° N visible
29 Mar 5.7 21:37:21 10° SSW 21:40:36 17° WSW 21:43:50 10° WNW visible
30 Mar 4.2 19:21:23 10° SE 19:25:06 20° E 19:28:46 10° NE visible
30 Mar 4.4 20:59:26 10° S 21:04:12 39° WSW 21:08:53 10° NW visible
31 Mar 5.9 06:32:30 10° ENE 06:35:55 18° ESE 06:39:21 10° SSE visible
31 Mar 2.9 20:22:24 10° SSE 20:27:35 88° ENE 20:32:40 10° NNW visible
01 Apr 3.5 19:46:03 10° SSE 19:50:46 36° E 19:55:27 10° NNE visible
01 Apr 5.3 21:25:39 10° SSW 21:29:30 22° WSW 21:33:20 10° WNW visible
02 Apr 3.9 20:48:04 10° S 20:53:02 50° WSW 20:57:56 10° NNW visible
03 Apr 6.0 06:22:10 10° E 06:24:50 14° ESE 06:27:30 10° SSE visible
03 Apr 2.9 20:11:13 10° SSE 20:16:22 69° ENE 20:21:25 10° N visible
03 Apr 6.0 21:52:49 10° SW 21:54:43 12° WSW 21:56:36 10° W visible
04 Apr 3.8 19:35:06 10° SE 19:39:30 28° E 19:43:51 10° NNE visible
04 Apr 4.9 21:14:05 10° SSW 21:18:23 28° WSW 21:22:39 10° NW visible
